カタログに戻る

COSMOS 1879

運用中ナビゲーションPO
NORAD 18338·PAYLOAD·🇷🇺 Russia

打ち上げ Sep 7, 1987 から Plesetsk Cosmodrome

Loading…

次のパス (今後24時間)

TLE

最新Source: Space-Track

元期: Sep 14, 2026, 21:47 UTC

1 18338U 87074E   26257.90766411  .00000008  00000-0 -11660-4 0  9992
2 18338  82.5690 225.5778 0006620  11.5031  15.9278 12.65029332801404

AllMySatでCOSMOS 1879をリアルタイム追跡

Download on the App Store